Location: Kurnos
(51.3262°N, 19.3091°E)
Time: 07:20:44
(UTC+00:00)

Daily predictions for brighter satellites

Satellite Brightness Start Highest point End
(mag) Time Altitude Azimuth Time Altitude Azimuth Time Altitude Azimuth
NOSS 3-4 (C) 4.2 18:53:18 10° NW 18:59:39 58° NE 19:07:08 10° ESE
DEBRIS 3.1 18:58:14 10° SW 19:00:53 53° SSE 19:07:36 10° E
Meteor 2-12 Rocket 4.5 18:56:07 10° N 19:02:13 82° ENE 19:08:20 10° SSE
Cosmos 2237 4.4 18:56:34 10° NNW 19:02:19 78° WSW 19:08:03 10° SSE
Cosmos 2082 Rocket 2.2 18:58:03 10° SSW 19:03:44 74° ESE 19:09:27 10° NNE
Cosmos 2016 Rocket 4.0 18:58:20 10° S 19:04:34 81° E 19:10:45 10° NNE
Cosmos 2369 4.1 19:01:09 10° NW 19:06:50 66° WSW 19:12:29 10° SSE
ATLAS 2AS CENTAUR R/B 4.2 19:02:31 10° W 19:08:58 40° NNW 19:15:20 10° NE
CZ-4C R/B 2.9 19:08:45 10° WSW 19:13:08 53° NW 19:18:50 10° NE
CZ-4B R/B 3.6 19:15:30 10° SE 19:18:31 30° ENE 19:21:36 10° N
Cosmos 2151 3.3 19:14:50 10° N 19:18:50 47° ENE 19:22:47 10° SSE
USA 306 2.4 19:17:22 10° W 19:20:33 53° NNW 19:22:43 10° ENE
Cosmos 2098 Rocket 4.4 19:17:16 10° SE 19:20:49 22° E 19:24:00 10° NE
Cosmos 1626 Rocket 3.6 19:19:24 10° N 19:23:46 73° ENE 19:28:10 10° SSE
Ariane Rocket 3.7 19:19:14 10° SE 19:23:53 39° ENE 19:28:35 10° N
Cosmos 2278 3.9 19:19:24 10° NNW 19:25:08 68° ENE 19:30:44 10° SE
Cosmos 1782 3.4 19:25:26 10° SSW 19:28:51 51° WNW 19:32:19 10° N
Spot 2 Rocket 3.6 19:24:05 10° SSE 19:29:07 84° WSW 19:34:11 10° NNW
SL-16 R/B 2.3 19:23:32 10° NNW 19:29:15 87° ENE 19:34:53 10° SSE
Cosmos 1607 4.3 19:24:57 10° SW 19:31:08 73° NW 19:37:27 10° NE
ERS-1 Rocket 4.2 19:27:42 10° SSW 19:32:25 41° W 19:37:10 10° NNW
SPOT 3 Rocket 3.8 19:28:55 10° SSE 19:33:57 58° ENE 19:39:00 10° N
MOS 1-B 4.5 19:31:11 10° SSE 19:36:59 81° WSW 19:42:50 10° NNW
Cosmos 1980 Rocket 4.4 19:38:40 10° NW 19:42:47 21° W 19:46:53 10° SSW
Cosmos 2061 Rocket 4.1 19:37:44 10° S 19:43:59 83° W 19:50:21 10° N
CZ-4 R/B 3.9 19:42:49 10° SW 19:45:01 15° W 19:47:14 10° NW
USA 186 2.0 19:42:54 10° S 19:45:35 54° W 19:48:19 10° NNW
Cosmos 2228 4.0 19:42:42 10° SSW 19:46:40 47° WNW 19:50:39 10° N
USA 290 3.7 19:45:44 16° SE 19:46:55 19° ESE 19:49:14 10° NE
SL-08 R/B 3.6 19:42:11 10° NNE 19:47:00 72° WNW 19:51:42 10° SSW
COSMOS 2406 3.2 19:41:54 10° SSW 19:47:38 78° ESE 19:53:24 10° NNE
CZ-4B R/B 3.5 19:43:25 13° SSE 19:47:39 61° ENE 19:52:28 10° N
Cosmos 1933 3.2 19:45:23 10° S 19:49:07 62° E 19:52:54 10° NNE
ISS -3.7 19:48:03 10° W 19:51:25 83° N 19:54:46 10° E
NOSS 3 (A) 4.0 19:49:22 10° NW 19:51:36 75° SW 19:53:22 19° SE
Cosmos 1461 2.4 19:48:03 10° SSW 19:51:44 71° SE 19:55:24 10° NE
Cosmos 1992 Rocket 4.2 19:46:41 10° SSW 19:51:53 74° WNW 19:57:07 10° NNE
Terra 3.5 19:48:53 10° SSW 19:52:58 29° W 19:57:04 10° NNW
Meteor 1-20 Rocket 4.3 19:47:57 10° NNW 19:53:34 79° W 19:59:15 10° S
Okean 1 4.4 19:51:56 16° SE 19:53:45 23° E 19:56:40 10° NE
Okean O Rocket 2.4 19:53:14 10° S 19:57:22 47° W 20:01:33 10° NNW
Cosmos 1777 Rocket 4.0 19:53:46 10° NNW 19:59:01 78° ENE 20:03:12 16° SSE
Cosmos 2333 Rocket 2.5 19:53:51 10° NW 19:59:31 67° WSW 20:04:29 14° SSE
Cosmos 1544 Rocket 3.8 20:00:49 10° SSW 20:05:08 71° WNW 20:09:28 10° N
NOSS 3-3 (A) 4.2 20:00:43 10° WSW 20:06:02 67° NW 20:12:32 10° NE
Cosmos 1437 Rocket 2.7 20:04:04 10° SSW 20:07:37 73° WNW 20:11:14 10° N
Cosmos 1503 Rocket 4.0 20:03:47 10° NNW 20:09:00 74° ENE 20:12:49 18° SSE
Cosmos 2360 Rocket 2.2 20:03:54 10° NNW 20:09:37 89° WSW 20:13:59 18° SSE
Okean 1-7 Rocket 3.6 20:05:15 10° N 20:09:44 70° ENE 20:13:00 18° SSE
Cosmos 2034 Rocket 4.4 20:13:54 16° SSE 20:18:42 48° E 20:24:44 10° NNE
Cosmos 2333 4.2 20:13:51 10° NNW 20:19:36 89° WSW 20:23:47 19° SSE
Okean-O 4.2 20:15:49 10° SSW 20:19:41 30° W 20:23:35 10° NNW
Cosmos 1486 Rocket 4.2 20:14:41 10° NNW 20:19:56 67° WSW 20:23:55 17° S
Cosmos 2219 Rocket 2.3 20:16:41 10° NNW 20:22:23 76° ENE 20:26:24 20° SE
CZ-2C R/B 1.8 20:21:09 29° SSE 20:22:25 87° WSW 20:25:12 10° NNW
Cosmos 1766 4.1 20:20:01 10° NNE 20:22:48 27° ENE 20:24:01 21° ESE
Cosmos 1354 Rocket 4.1 20:18:43 10° NNW 20:23:58 69° ENE 20:27:29 21° SE
Nadezhda 4 Rocket 4.0 20:24:32 10° N 20:30:41 87° W 20:35:26 18° S
IRS-1C Rocket 4.4 20:27:08 16° S 20:31:21 64° WSW 20:36:38 10° NNW
Cosmos 540 Rocket 3.8 20:28:07 18° S 20:31:36 47° ESE 20:36:32 10° NE
Cosmos 1825 Rocket 3.5 20:29:43 10° NNW 20:34:06 82° W 20:36:52 22° S
Cosmos 1805 3.7 20:31:29 10° NNW 20:34:37 44° W 20:36:34 19° SSW
Cosmos 220 Rocket 4.4 20:33:57 10° SW 20:37:57 58° WNW 20:42:02 10° NNE
Meteor 2-10 4.4 20:32:51 10° NNW 20:38:35 70° W 20:42:50 18° S
Aureole 1 Rocket 4.1 20:34:11 10° NNW 20:39:51 65° ENE 20:44:26 21° SE
Cosmos 1953 Rocket 3.5 20:36:31 10° N 20:40:53 71° E 20:43:09 27° SSE
Helios 1A 3.8 20:37:46 10° NNE 20:41:18 31° E 20:42:24 26° SE
Cosmos 2322 Rocket 2.7 20:36:32 10° NW 20:42:01 51° WSW 20:45:49 19° S
RESURS DK-1 3.5 20:39:29 10° NNW 20:43:09 34° NE 20:45:33 18° ESE
USA 306 2.5 20:45:27 10° WNW 20:47:38 32° N 20:47:38 32° N
Cosmos 2082 Rocket 4.4 20:43:29 10° W 20:48:22 28° NW 20:53:16 10° NNE
Cosmos 2195 Rocket 4.5 20:42:41 10° N 20:48:57 89° E 20:53:05 22° S
TSX-5 3.9 20:46:56 10° NNW 20:49:58 45° NE 20:51:15 28° ESE
NOSS 3-4 (A) 4.3 20:43:31 10° NW 20:49:59 49° WSW 20:55:06 21° S
NOSS 3-4 (C) 4.3 20:44:08 10° NW 20:50:38 50° WSW 20:55:45 21° S
Cosmos 1707 2.3 20:52:04 42° ESE 20:52:16 43° E 20:55:00 10° NNE
CZ-4B R/B 4.5 20:49:58 12° SW 20:52:18 22° W 20:55:07 10° NW
Cosmos 2026 Rocket 4.0 20:46:34 10° N 20:53:00 82° E 20:57:08 24° SSE
Geosat 4.5 20:48:39 10° NE 20:53:23 41° ESE 20:55:36 26° SSE
Cosmos 2058 Rocket 3.4 20:53:53 30° SSE 20:55:40 49° E 20:59:52 10° NNE
Cosmos 2098 Rocket 3.9 20:53:26 10° SSW 20:57:57 46° WNW 21:01:51 10° N
Cosmos 1076 Rocket 3.7 20:53:53 10° NNW 20:58:05 63° W 21:00:20 26° S
Cosmos 44 3.5 20:54:26 10° NW 20:59:52 81° SW 21:02:45 28° SSE
Cosmos 2237 Rocket 3.6 20:55:28 10° NNW 21:00:29 31° NE 21:05:22 10° ESE
CZ-4C R/B 4.4 20:58:13 10° WNW 21:02:38 27° N 21:08:07 10° NE
Ariane Rocket 4.2 20:59:02 14° SSW 21:02:48 35° W 21:07:28 10° NNW
SL-16 R/B 4.2 21:08:48 10° WNW 21:12:35 19° W 21:16:22 10° SW
Meteor 1-26 Rocket 4.2 21:09:41 23° S 21:13:14 85° E 21:19:00 10° NNE
COSMOS 2428 2.9 21:08:37 10° NNW 21:14:19 67° ENE 21:17:37 26° SE
Cosmos 1470 2.9 21:12:20 10° N 21:15:30 43° ENE 21:16:07 38° ESE
Cosmos 1763 Rocket 3.7 21:10:52 12° SSW 21:15:42 74° WNW 21:21:00 10° NNE
ARIANE 5 R/B 3.4 21:15:19 26° ESE 21:17:19 42° ENE 21:21:33 10° N
ALOS 2 3.6 21:17:23 24° ESE 21:19:21 37° ENE 21:23:25 10° N
USA 290 3.9 21:18:07 11° WSW 21:20:50 31° WNW 21:23:41 10° N
Cosmos 1898 Rocket 3.5 21:16:38 10° NNW 21:21:50 73° ENE 21:24:23 30° SE
Meteor 1-11 Rocket 4.4 21:19:21 10° N 21:24:45 43° ENE 21:27:43 24° SE
Helios 1B rocket 1.9 21:24:22 50° SSE 21:25:12 87° ENE 21:28:44 10° NNW
Meteor 2-2 Rocket 4.2 21:22:13 25° S 21:25:41 89° ESE 21:31:32 10° NNE
ISS -3.8 21:24:53 10° W 21:28:11 58° SSW 21:28:15 58° SSW
BREEZE-M DEB (TANK) 3.8 21:27:57 10° W 21:28:12 12° W 21:28:12 12° W
Cosmos 1536 3.1 21:32:21 10° NNW 21:35:57 51° W 21:36:59 38° SW
CSL-04 DEB 4.0 21:36:01 52° S 21:36:50 82° WSW 21:40:30 10° NNW
SAR-Lupe-2 4.5 21:37:46 30° E 21:38:27 34° ENE 21:41:30 10° N
Cosmos-2242 3.5 21:37:47 26° SW 21:39:51 51° WNW 21:43:53 10° N
Cosmos 1092 Rocket 4.4 21:35:45 10° NNW 21:41:45 56° W 21:45:20 25° SSW
NOSS 0 Rocket 3.9 21:37:17 10° NNW 21:43:31 84° ENE 21:46:51 29° SE
KORONAS-FOTON 3.8 21:43:53 43° SW 21:44:42 59° WNW 21:48:04 10° N
Cosmos 2297 Rocket 3.1 21:46:14 28° SE 21:47:44 32° ESE 21:52:42 10° NE
Cosmos 841 Rocket 3.6 21:47:27 36° S 21:49:25 61° ESE 21:54:35 10° NNE
Meteor 1-14 Rocket 4.1 21:46:39 10° NNW 21:52:13 81° W 21:54:40 35° S
Cosmos 2360 Rocket 4.2 21:49:12 10° WNW 21:52:48 17° W 21:55:44 12° SW
Cosmos 1842 3.1 21:56:49 49° WSW 21:57:13 54° WNW 22:00:20 10° N
Cosmos 2322 3.9 21:52:25 10° NW 21:58:00 59° WSW 22:00:18 34° S
Cosmos 1975 2.5 21:54:55 10° NNW 21:58:37 75° W 21:59:14 57° SSW
Spot 4 3.8 21:57:15 40° S 21:59:00 83° WSW 22:03:50 10° NNW
ACS3 Solar Sail 3.7 21:56:11 10° NE 21:59:39 16° E 22:02:41 11° ESE
Meteor 2-6 Rocket 4.5 21:58:28 27° SSW 22:01:52 74° WNW 22:07:50 10° N
Cosmos 1812 Rocket 3.6 22:02:59 45° SSE 22:04:11 68° E 22:08:37 10° NNE
Cosmos 2221 2.3 22:03:18 48° S 22:04:27 90° NNE 22:08:40 10° N
NOSS 8 (E) 4.5 22:02:38 10° NW 22:05:32 57° NE 22:05:53 52° ENE
Cosmos 2219 Rocket 3.8 22:01:31 10° NW 22:05:43 22° WSW 22:08:05 17° SW
Cosmos 1271 Rocket 2.9 22:06:21 44° WSW 22:07:00 52° WNW 22:10:19 10° N
MetOp-A 4.2 22:05:00 32° SE 22:07:03 55° ENE 22:11:34 10° N
Helios 1A 4.4 22:12:30 10° N 22:15:55 29° WNW 22:18:07 17° WSW
ARGOS Delta rocket 4.0 22:11:08 10° NNE 22:16:19 86° ESE 22:18:32 37° S
Cosmos 2279 Rocket 4.3 22:16:39 26° SSW 22:20:17 62° WNW 22:26:31 10° N
RESURS DK-1 3.2 22:16:55 10° NW 22:20:29 32° WSW 22:20:45 31° WSW
Meteor 2-20 4.5 22:19:22 34° S 22:22:06 71° E 22:28:10 10° NNE
NOSS 8 (F) 4.1 22:19:26 10° NW 22:22:20 75° NE 22:22:21 75° NE
Cosmos 858 Rocket 4.5 22:21:03 10° NNW 22:26:12 67° WSW 22:27:57 40° S
Meteor 1-19 Rocket 4.4 22:24:38 31° SSW 22:27:30 75° WNW 22:33:30 10° N
Cosmos 1937 Rocket 3.9 22:23:42 10° NW 22:28:36 46° WSW 22:30:09 35° SSW
CZ-2C R/B 4.3 22:27:56 10° N 22:32:17 51° WNW 22:34:15 29° SW
SL-16 R/B 3.3 22:28:17 10° NNW 22:33:40 41° NE 22:38:56 10° ESE
GP-B 3.0 22:30:36 10° N 22:35:00 82° W 22:36:11 48° SSW
CZ-2C R/B 2.6 22:39:09 35° SSE 22:41:25 79° ENE 22:46:38 10° NNW
Lacrosse 4 Rocket 1.6 22:42:44 46° SE 22:43:02 47° ESE 22:46:59 10° NE
Cosmos 2237 Rocket 2.2 22:39:20 10° NW 22:44:59 65° WSW 22:47:09 37° S
USA 234 3.3 22:39:48 10° ENE 22:46:14 56° SE 22:49:36 29° SSW
SeaSat 1 3.0 22:42:55 19° ESE 22:46:18 54° NE 22:51:05 10° NNW
Cosmos 2266 Rocket 4.3 22:41:55 10° NNW 22:47:47 54° W 22:50:26 31° SSW
Cosmos 1980 3.9 22:43:39 10° NW 22:49:12 57° WSW 22:51:12 37° S
CZ-4C R/B 4.4 22:47:20 10° NW 22:52:36 32° NNE 22:59:12 10° E
Intercosmos 24 3.9 22:49:16 10° NNW 22:53:03 54° W 22:53:29 50° SW
ARIANE 5 R/B 4.0 22:52:41 24° WSW 22:53:45 26° W 22:57:33 10° NW
ATLAS 2AS CENTAUR R/B 3.8 22:47:41 10° NW 22:54:09 43° NNE 23:00:35 10° E
ALOS 2 3.8 22:54:46 27° WSW 22:55:45 29° W 22:59:38 10° NNW
Cosmos 2227 Rocket 2.7 22:55:49 33° SSE 22:57:49 47° ESE 23:03:13 10° NE
COSMOS 2428 4.0 22:53:31 10° NW 22:58:04 25° WSW 22:59:35 22° SW
Meteor 2-4 Rocket 3.6 23:00:13 37° S 23:02:27 88° E 23:08:03 10° NNE
BlueWalker 3 2.4 23:05:22 40° ESE 23:05:22 40° ESE 23:08:03 10° ENE
Cosmos 2263 Rocket 3.1 23:03:56 27° SE 23:05:53 35° ESE 23:10:54 10° NE
CZ-2C R/B 3.4 23:00:53 10° NNE 23:06:39 78° WNW 23:09:26 33° SSW
Cosmos 1125 Rocket 4.1 23:03:49 10° NNW 23:09:03 56° ENE 23:12:45 19° SE
Cosmos 1766 Rocket 3.8 23:04:57 10° NNW 23:09:09 51° W 23:10:08 42° SW
Cosmos 1758 3.7 23:06:45 10° N 23:10:17 49° ENE 23:11:14 38° ESE
Cosmos 1238 Rocket 3.3 23:14:04 41° SW 23:15:11 56° WNW 23:19:34 10° N
Cosmos 1655 Rocket 4.2 23:15:11 10° NNW 23:21:19 61° W 23:24:15 32° SSW
SWARM C 4.3 23:19:37 10° N 23:22:52 87° W 23:23:05 76° S
SWARM A 4.0 23:19:43 10° N 23:22:59 79° E 23:23:15 70° SE
Cosmos 1814 Rocket 3.9 23:21:58 37° SSW 23:24:06 86° ESE 23:29:23 10° NNE
Alouette 2 Rocket 4.2 23:23:31 10° NNW 23:27:10 43° W 23:28:18 35° SW
Meteor 2-11 Rocket 4.4 23:22:06 10° NNW 23:28:14 73° W 23:31:13 32° S
Meteor 1-27 Rocket 4.4 23:25:49 26° SW 23:28:51 48° WNW 23:34:24 10° N
Meteor 2-10 Rocket 3.8 23:24:19 10° NNW 23:29:46 62° W 23:32:13 33° SSW
Cosmos 1340 Rocket 3.2 23:27:30 10° N 23:31:18 55° ENE 23:32:47 32° SE
Cosmos 2297 Rocket 2.7 23:27:59 22° WSW 23:31:32 53° NW 23:37:05 10° NNE
CENTAUR R/B 4.2 23:31:16 11° SE 23:34:04 16° ESE 23:37:38 10° ENE
Cosmos 1151 Rocket 3.4 23:34:52 34° SSE 23:36:25 54° E 23:40:39 10° NNE
BREEZE-M DEB (TANK) 3.8 23:39:17 27° SE 23:39:17 27° SE 23:42:09 10° ESE
DELTA 2 DEB (DPAF) 3.5 23:34:43 10° NNE 23:38:18 78° ESE 23:39:02 53° S
SL-14 R/B 3.1 23:39:49 50° SSW 23:40:45 85° W 23:44:34 10° N
CZ-4C R/B 2.9 23:37:43 10° NNE 23:41:07 78° WNW 23:41:47 55° SSW
Cosmos 1244 Rocket 4.5 23:35:28 10° NNW 23:41:36 70° W 23:44:47 30° S
Cosmos 158 Rocket 4.3 23:39:40 29° SW 23:42:21 65° WNW 23:47:40 10° NNE
ACS3 Solar Sail 1.7 23:36:56 10° NNE 23:42:57 80° ESE 23:46:10 29° S
Cosmos 1953 3.9 23:41:16 10° N 23:44:26 27° ENE 23:46:58 13° SE
Landsat 5 3.8 23:43:09 10° N 23:47:08 52° WNW 23:48:28 35° SW
Cosmos 1500 Rocket 3.5 23:44:38 10° N 23:49:06 88° W 23:50:58 34° S
IDEFIX/ARIANE 42P 3.8 23:44:42 10° NNE 23:49:25 33° E 23:52:42 17° SSE
Cosmos 1703 4.1 23:54:48 26° SE 23:55:44 32° E 23:58:38 10° NNE
